EW6655 Weather Reports


time (UTC)temp
C
wind
direction
speed
KPH
gust
KPH
rain 1hr
cm
rain 24hr
cm
rain mn
cm
humidity
%
barometer
mb
20190419021542 9 82 0.0 3.2 0.00 0.00 0.00 62 1025.2
20190419020145 8 82 1.6 3.2 0.00 0.00 0.00 62 1025.2
20190419014547 9 82 0.0 3.2 0.00 0.00 0.00 61 1025.1
20190419013037 10 90 1.6 9.7 0.00 0.00 0.00 61 1025.0
20190419011556 10 92 1.6 11.3 0.00 0.00 0.00 61 1025.0
20190419010035 9 93 3.2 11.3 0.00 0.00 0.00 62 1024.9
20190419004526 10 91 1.6 4.8 0.00 0.00 0.00 62 1024.8
20190419003019 10 109 1.6 9.7 0.00 0.00 0.00 61 1024.8
20190419001521 10 103 3.2 9.7 0.00 0.00 0.00 61 1024.8
20190419000012 10 109 1.6 4.8 0.00 0.00 0.00 61 1024.7
20190418234533 10 109 1.6 6.4 0.00 0.00 0.00 60 1024.8
20190418233107 11 108 1.6 9.7 0.00 0.00 0.00 59 1024.8
20190418231507 11 87 1.6 6.4 0.00 0.00 0.00 58 1024.8
20190418230006 11 105 3.2 11.3 0.00 0.00 0.00 57 1024.8
20190418224505 11 135 3.2 11.3 0.00 0.00 0.00 57 1024.9
20190418223003 11 120 1.6 6.4 0.00 0.00 0.00 58 1024.8
20190418222021 11 82 3.2 11.3 0.00 0.00 0.00 57 1024.8
20190418220124 12 109 1.6 6.4 0.00 0.00 0.00 56 1024.7
20190418214702 12 118 3.2 9.7 0.00 0.00 0.00 54 1024.6
20190418213241 12 81 4.8 11.3 0.00 0.00 0.00 53 1024.5
20190418211631 12 112 3.2 16.1 0.00 0.00 0.00 53 1024.5
20190418210214 12 111 3.2 9.7 0.00 0.00 0.00 52 1024.4
20190418204650 12 133 3.2 6.4 0.00 0.00 0.00 52 1024.3
20190418203102 13 107 1.6 6.4 0.00 0.00 0.00 52 1024.2
20190418201644 13 101 1.6 4.8 0.00 0.00 0.00 52 1024.1
20190418200119 13 96 1.6 4.8 0.00 0.00 0.00 51 1024.0
20190418194656 13 89 1.6 9.7 0.00 0.00 0.00 50 1023.9
20190418193210 13 109 1.6 9.7 0.00 0.00 0.00 49 1023.8
20190418191615 14 130 1.6 11.3 0.00 0.00 0.00 49 1023.8
20190418190109 15 68 1.6 9.7 0.00 0.00 0.00 47 1023.7
20190418184647 15 106 1.6 14.5 0.00 0.00 0.00 46 1023.5
20190418183118 15 101 1.6 9.7 0.00 0.00 0.00 44 1023.4
20190418181634 16 115 0.0 12.9 0.00 0.00 0.00 41 1023.3
20190418180110 16 101 3.2 14.5 0.00 0.00 0.00 41 1023.2
20190418174705 17 114 4.8 17.7 0.00 0.00 0.00 39 1023.1
20190418173227 17 79 6.4 22.5 0.00 0.00 0.00 39 1023.0
20190418171630 17 111 3.2 17.7 0.00 0.00 0.00 40 1023.0
20190418170145 17 96 8.0 16.1 0.00 0.00 0.00 40 1022.9
20190418164611 17 101 8.0 17.7 0.00 0.00 0.00 41 1022.9
20190418163132 17 105 8.0 17.7 0.00 0.00 0.00 42 1023.0
20190418161650 18 98 4.8 16.1 0.00 0.00 0.00 39 1022.9
20190418160104 17 89 6.4 17.7 0.00 0.00 0.00 40 1022.8
20190418154619 17 76 8.0 19.3 0.00 0.00 0.00 41 1022.8
20190418153105 17 111 11.3 22.5 0.00 0.00 0.00 41 1022.8
20190418151630 17 74 4.8 25.7 0.00 0.00 0.00 42 1022.8
20190418150105 17 111 11.3 22.5 0.00 0.00 0.00 40 1022.9
20190418144632 17 100 6.4 20.9 0.00 0.00 0.00 43 1022.7
20190418143044 17 91 9.7 27.4 0.00 0.00 0.00 43 1022.8
20190418141559 17 81 8.0 27.4 0.00 0.00 0.00 46 1022.8
20190418140056 17 63 9.7 22.5 0.00 0.00 0.00 48 1022.8
20190418134609 17 86 9.7 25.7 0.00 0.00 0.00 47 1022.9
20190418133037 17 105 11.3 20.9 0.00 0.00 0.00 45 1022.9
20190418131550 17 106 9.7 19.3 0.00 0.00 0.00 49 1023.0
20190418130129 17 139 8.0 27.4 0.00 0.00 0.00 45 1023.1
20190418124535 17 106 3.2 20.9 0.00 0.00 0.00 47 1023.0
20190418123041 16 78 8.0 25.7 0.00 0.00 0.00 45 1023.1
20190418121540 16 119 9.7 25.7 0.00 0.00 0.00 46 1023.1
20190418120050 16 106 8.0 20.9 0.00 0.00 0.00 47 1023.3
20190418114520 16 88 8.0 27.4 0.00 0.00 0.00 49 1023.4
20190418113051 16 95 6.4 20.9 0.00 0.00 0.00 48 1023.5
20190418111515 16 109 12.9 25.7 0.00 0.00 0.00 48 1023.5
20190418110038 16 115 4.8 22.5 0.00 0.00 0.00 48 1023.6
20190418104522 16 100 11.3 27.4 0.00 0.00 0.00 46 1023.6
20190418103021 15 109 3.2 20.9 0.00 0.00 0.00 48 1023.7
20190418101521 15 88 9.7 25.7 0.00 0.00 0.00 47 1023.8
20190418100032 15 200 6.4 25.7 0.00 0.00 0.00 48 1023.8
20190418094518 15 121 12.9 29.0 0.00 0.03 0.00 48 1023.9
20190418093004 15 65 11.3 19.3 0.00 0.03 0.00 49 1024.0
20190418091649 14 110 12.9 29.0 0.00 0.03 0.00 53 1023.9
20190418090132 14 136 8.0 20.9 0.00 0.03 0.00 53 1024.1
20190418084737 14 65 6.4 16.1 0.00 0.03 0.00 55 1024.0
20190418083230 13 207 3.2 11.3 0.00 0.03 0.00 57 1024.1
20190418081629 13 173 6.4 14.5 0.00 0.03 0.00 56 1024.1
20190418080125 13 94 6.4 12.9 0.00 0.03 0.00 56 1024.2
20190418074620 12 163 3.2 14.5 0.00 0.03 0.00 58 1024.1
20190418073124 12 153 1.6 12.9 0.00 0.03 0.00 60 1024.0
20190418071625 11 127 3.2 11.3 0.00 0.03 0.00 60 1023.8
20190418070152 11 132 3.2 11.3 0.00 0.03 0.00 60 1023.7
20190418064657 11 110 1.6 14.5 0.00 0.03 0.00 60 1023.7
20190418063105 10 166 3.2 11.3 0.00 0.03 0.00 59 1023.6
20190418061601 10 113 1.6 6.4 0.00 0.03 0.00 59 1023.6
20190418060114 9 131 0.0 3.2 0.00 0.03 0.00 61 1023.5
20190418054609 8 101 0.0 4.8 0.00 0.05 0.00 63 1023.4
20190418053031 8 142 1.6 6.4 0.00 0.05 0.00 64 1023.2
20190418051619 8 144 1.6 6.4 0.00 0.05 0.00 63 1023.2
20190418050028 8 104 3.2 17.7 0.00 0.05 0.00 63 1023.2
20190418044530 8 122 1.6 6.4 0.00 0.08 0.00 63 1023.1
20190418043044 8 110 1.6 11.3 0.00 0.08 0.00 61 1023.0
20190418041608 8 105 1.6 6.4 0.00 0.08 0.00 60 1022.9
20190418040021 8 88 3.2 12.9 0.00 0.08 0.00 60 1022.8
20190418034533 8 111 6.4 12.9 0.00 0.10 0.00 60 1022.9
20190418033112 8 115 1.6 11.3 0.00 0.10 0.00 59 1022.9
20190418031530 9 84 1.6 9.7 0.00 0.10 0.00 59 1023.0
20190418024511 8 107 1.6 11.3 0.00 0.13 0.00 62 1023.1
20190418023008 8 103 3.2 9.7 0.00 0.13 0.00 63 1023.1